TimeMST,TemperatureF,Dew PointF,Humidity,Sea Level PressureIn,VisibilityMPH,Wind Direction,Wind SpeedMPH,Gust SpeedMPH,PrecipitationIn,Events,Conditions,WindDirDegrees,DateUTC
12:15 AM,36.7,27.5,69,29.71,10.0,NNW,15.0,-,N/A,,Mostly Cloudy,330,2013-02-18 07:15:00
12:35 AM,36.5,27.7,70,29.71,10.0,NNW,16.1,20.7,N/A,,Overcast,340,2013-02-18 07:35:00
12:55 AM,35.6,27.3,72,29.72,10.0,NNW,17.3,-,N/A,,Scattered Clouds,330,2013-02-18 07:55:00
1:15 AM,35.1,26.6,71,29.71,10.0,NNW,21.9,28.8,N/A,,Clear,340,2013-02-18 08:15:00
1:35 AM,34.9,26.6,72,29.73,10.0,NNW,19.6,26.5,N/A,,Clear,340,2013-02-18 08:35:00
1:55 AM,34.5,26.6,73,29.73,10.0,NNW,19.6,23.0,N/A,,Clear,340,2013-02-18 08:55:00
2:15 AM,33.8,26.2,74,29.74,10.0,NNW,19.6,-,N/A,,Clear,330,2013-02-18 09:15:00
2:35 AM,33.1,26.1,75,29.74,10.0,NNW,19.6,25.3,N/A,,Clear,330,2013-02-18 09:35:00
2:55 AM,32.2,25.7,77,29.75,10.0,NNW,18.4,23.0,N/A,,Clear,330,2013-02-18 09:55:00
3:15 AM,32.0,25.3,76,29.75,10.0,NNW,16.1,-,N/A,,Clear,330,2013-02-18 10:15:00
3:35 AM,31.1,25.0,78,29.76,10.0,NNW,15.0,21.9,N/A,,Clear,330,2013-02-18 10:35:00
3:55 AM,30.9,24.8,78,29.77,10.0,NNW,17.3,-,N/A,,Clear,330,2013-02-18 10:55:00
4:15 AM,30.4,24.8,80,29.77,10.0,NNW,16.1,-,N/A,,Clear,330,2013-02-18 11:15:00
4:35 AM,30.6,24.8,79,29.79,10.0,NNW,13.8,20.7,N/A,,Clear,330,2013-02-18 11:35:00
4:55 AM,30.7,25.0,79,29.79,10.0,NW,15.0,-,N/A,,Clear,320,2013-02-18 11:55:00
5:15 AM,30.7,24.8,79,29.80,10.0,NNW,16.1,-,N/A,,Clear,330,2013-02-18 12:15:00
5:35 AM,31.1,24.8,77,29.81,10.0,NW,15.0,21.9,N/A,,Scattered Clouds,320,2013-02-18 12:35:00
5:55 AM,31.1,25.3,79,29.82,10.0,NNW,17.3,-,N/A,,Mostly Cloudy,330,2013-02-18 12:55:00
6:15 AM,32.0,25.2,76,29.83,10.0,NW,16.1,-,N/A,,Overcast,320,2013-02-18 13:15:00
6:35 AM,31.5,24.8,76,29.84,10.0,NW,15.0,-,N/A,,Overcast,320,2013-02-18 13:35:00
6:55 AM,31.5,24.6,76,29.86,10.0,NNW,16.1,-,N/A,,Overcast,330,2013-02-18 13:55:00
7:15 AM,30.2,23.9,77,29.87,10.0,NW,9.2,16.1,N/A,,Overcast,320,2013-02-18 14:15:00
7:35 AM,29.7,23.4,77,29.88,10.0,NW,13.8,17.3,N/A,,Scattered Clouds,320,2013-02-18 14:35:00
7:55 AM,32.0,23.4,70,29.88,10.0,NNW,19.6,-,N/A,,Clear,330,2013-02-18 14:55:00
8:15 AM,32.9,23.0,67,29.89,10.0,NNW,20.7,28.8,N/A,,Clear,340,2013-02-18 15:15:00
8:35 AM,33.8,23.4,66,29.90,10.0,NNW,20.7,29.9,N/A,,Clear,340,2013-02-18 15:35:00
8:55 AM,34.7,23.7,64,29.90,10.0,North,23.0,27.6,N/A,,Clear,350,2013-02-18 15:55:00
9:35 AM,35.2,23.4,62,29.92,10.0,NNW,27.6,31.1,N/A,,Scattered Clouds,340,2013-02-18 16:35:00
9:55 AM,36.1,22.3,57,29.93,10.0,NNW,23.0,33.4,N/A,,Scattered Clouds,330,2013-02-18 16:55:00
10:15 AM,36.9,22.1,55,29.94,10.0,NW,26.5,29.9,N/A,,Scattered Clouds,320,2013-02-18 17:15:00
10:35 AM,36.9,22.1,55,29.94,10.0,NNW,25.3,33.4,N/A,,Scattered Clouds,340,2013-02-18 17:35:00
10:55 AM,38.3,22.1,52,29.94,10.0,NW,20.7,27.6,N/A,,Clear,320,2013-02-18 17:55:00
11:15 AM,37.6,21.4,52,29.95,10.0,NNW,25.3,28.8,N/A,,Scattered Clouds,340,2013-02-18 18:15:00
11:35 AM,38.7,21.2,50,29.95,10.0,North,25.3,28.8,N/A,,Scattered Clouds,350,2013-02-18 18:35:00
11:55 AM,38.7,20.3,48,29.95,10.0,NNW,18.4,29.9,N/A,,Scattered Clouds,330,2013-02-18 18:55:00
12:15 PM,39.4,19.9,46,29.96,10.0,NNW,20.7,28.8,N/A,,Clear,340,2013-02-18 19:15:00
12:35 PM,38.3,20.3,48,29.96,10.0,NNW,17.3,27.6,N/A,,Scattered Clouds,330,2013-02-18 19:35:00
12:55 PM,38.1,20.1,48,29.96,10.0,North,17.3,25.3,N/A,,Mostly Cloudy,350,2013-02-18 19:55:00
1:15 PM,38.7,19.6,46,29.95,10.0,NNW,18.4,24.2,N/A,,Scattered Clouds,340,2013-02-18 20:15:00
1:35 PM,39.4,19.6,45,29.95,10.0,North,18.4,24.2,N/A,,Scattered Clouds,350,2013-02-18 20:35:00
1:55 PM,38.7,18.7,45,29.96,10.0,NNW,17.3,20.7,N/A,,Clear,330,2013-02-18 20:55:00
2:15 PM,39.4,18.5,43,29.96,10.0,NNW,16.1,23.0,N/A,,Clear,340,2013-02-18 21:15:00
2:35 PM,39.2,17.4,41,29.96,10.0,NNW,15.0,-,N/A,,Clear,340,2013-02-18 21:35:00
2:55 PM,38.3,18.0,44,29.96,10.0,NNW,12.7,16.1,N/A,,Clear,330,2013-02-18 21:55:00
3:15 PM,38.3,17.1,42,29.97,10.0,NNW,18.4,24.2,N/A,,Clear,340,2013-02-18 22:15:00
3:35 PM,38.3,16.2,41,29.96,10.0,NNW,18.4,-,N/A,,Clear,340,2013-02-18 22:35:00
3:55 PM,37.6,16.7,43,29.97,10.0,NNW,13.8,-,N/A,,Scattered Clouds,330,2013-02-18 22:55:00
4:15 PM,36.9,17.4,45,29.98,10.0,NNW,13.8,-,N/A,,Scattered Clouds,340,2013-02-18 23:15:00
4:35 PM,36.1,17.6,47,29.99,10.0,NNW,15.0,-,N/A,,Mostly Cloudy,330,2013-02-18 23:35:00
4:55 PM,36.0,16.2,45,29.99,10.0,NW,13.8,-,N/A,,Overcast,320,2013-02-18 23:55:00
5:15 PM,35.1,15.8,45,30.00,10.0,NW,9.2,-,N/A,,Scattered Clouds,320,2013-02-19 00:15:00
5:35 PM,30.9,15.3,52,30.00,10.0,NW,6.9,-,N/A,,Clear,320,2013-02-19 00:35:00
5:55 PM,28.2,15.3,58,30.01,10.0,NW,6.9,-,N/A,,Clear,310,2013-02-19 00:55:00
6:15 PM,25.2,14.7,65,30.02,10.0,NW,8.1,-,N/A,,Clear,320,2013-02-19 01:15:00
6:35 PM,28.4,17.1,63,30.03,10.0,NNW,10.4,-,N/A,,Mostly Cloudy,340,2013-02-19 01:35:00
6:55 PM,32.2,19.0,58,30.04,10.0,NNW,18.4,21.9,N/A,,Mostly Cloudy,340,2013-02-19 01:55:00
7:15 PM,30.2,19.6,65,30.05,10.0,North,9.2,-,N/A,,Scattered Clouds,360,2013-02-19 02:15:00
7:35 PM,27.0,18.9,72,30.06,10.0,NNW,5.8,-,N/A,,Clear,340,2013-02-19 02:35:00
7:55 PM,25.3,18.5,75,30.07,10.0,North,5.8,-,N/A,,Clear,350,2013-02-19 02:55:00
8:15 PM,24.6,18.5,78,30.08,10.0,NW,5.8,-,N/A,,Clear,320,2013-02-19 03:15:00
8:35 PM,24.4,18.9,79,30.08,10.0,NNW,6.9,-,N/A,,Clear,340,2013-02-19 03:35:00
8:55 PM,23.9,19.0,82,30.09,10.0,NNW,8.1,-,N/A,,Clear,340,2013-02-19 03:55:00
9:15 PM,22.6,18.5,84,30.09,10.0,NNW,8.1,-,N/A,,Clear,330,2013-02-19 04:15:00
9:35 PM,20.3,16.7,86,30.10,10.0,NW,6.9,-,N/A,,Clear,320,2013-02-19 04:35:00
9:55 PM,21.4,17.8,86,30.10,10.0,NNW,10.4,-,N/A,,Clear,340,2013-02-19 04:55:00
10:15 PM,20.8,16.7,84,30.11,10.0,NNW,6.9,-,N/A,,Clear,330,2013-02-19 05:15:00
10:35 PM,18.7,15.4,87,30.11,10.0,Calm,Calm,-,N/A,,Clear,0,2013-02-19 05:35:00
10:55 PM,18.9,15.6,87,30.11,10.0,West,3.5,-,N/A,,Clear,280,2013-02-19 05:55:00
11:35 PM,17.4,14.2,87,30.12,10.0,WNW,4.6,-,N/A,,Clear,300,2013-02-19 06:35:00
11:55 PM,17.1,14.2,88,30.12,10.0,Calm,Calm,-,N/A,,Clear,0,2013-02-19 06:55:00